TimeMST,TemperatureF,Dew PointF,Humidity,Sea Level PressureIn,VisibilityMPH,Wind Direction,Wind SpeedMPH,Gust SpeedMPH,PrecipitationIn,Events,Conditions,WindDirDegrees,DateUTC
12:15 AM,44.6,8.6,23,30.07,10.0,NW,13.8,-,N/A,,Clear,310,2013-01-19 07:15:00
12:35 AM,42.8,6.8,23,30.08,10.0,WNW,13.8,-,N/A,,Clear,300,2013-01-19 07:35:00
12:55 AM,48.2,8.6,20,30.08,10.0,NW,16.1,24.2,N/A,,Clear,320,2013-01-19 07:55:00
1:15 AM,42.8,6.8,23,30.09,10.0,North,15.0,-,N/A,,Clear,350,2013-01-19 08:15:00
1:35 AM,39.2,8.6,28,30.10,10.0,WNW,8.1,-,N/A,,Clear,300,2013-01-19 08:35:00
1:55 AM,37.4,8.6,30,30.12,10.0,NW,5.8,-,N/A,,Clear,320,2013-01-19 08:55:00
2:15 AM,41.0,8.6,26,30.10,10.0,NNE,9.2,-,N/A,,Clear,20,2013-01-19 09:15:00
2:35 AM,42.8,8.6,25,30.10,10.0,NE,11.5,-,N/A,,Clear,40,2013-01-19 09:35:00
2:55 AM,42.8,8.6,25,30.10,10.0,NE,13.8,17.3,N/A,,Clear,40,2013-01-19 09:55:00
3:15 AM,39.2,6.8,26,30.10,10.0,North,13.8,-,N/A,,Clear,350,2013-01-19 10:15:00
3:35 AM,41.0,8.6,26,30.09,10.0,NE,10.4,-,N/A,,Clear,40,2013-01-19 10:35:00
3:55 AM,41.0,8.6,26,30.11,10.0,North,4.6,-,N/A,,Clear,350,2013-01-19 10:55:00
4:15 AM,41.0,6.8,24,30.10,10.0,West,3.5,-,N/A,,Clear,280,2013-01-19 11:15:00
4:35 AM,41.0,6.8,24,30.11,10.0,West,4.6,-,N/A,,Clear,270,2013-01-19 11:35:00
4:55 AM,35.6,6.8,30,30.12,10.0,SSW,6.9,-,N/A,,Clear,200,2013-01-19 11:55:00
5:15 AM,33.8,5.0,30,30.14,10.0,West,4.6,-,N/A,,Clear,280,2013-01-19 12:15:00
5:35 AM,35.6,6.8,30,30.15,10.0,WSW,4.6,-,N/A,,Clear,240,2013-01-19 12:35:00
5:55 AM,32.0,5.0,32,30.16,10.0,West,5.8,-,N/A,,Clear,270,2013-01-19 12:55:00
6:15 AM,32.0,6.8,35,30.17,10.0,SW,5.8,-,N/A,,Clear,220,2013-01-19 13:15:00
6:35 AM,30.2,5.0,34,30.17,10.0,West,3.5,-,N/A,,Clear,270,2013-01-19 13:35:00
6:55 AM,30.2,6.8,37,30.17,10.0,Calm,Calm,-,N/A,,Clear,0,2013-01-19 13:55:00
7:15 AM,33.8,8.6,35,30.18,10.0,South,4.6,-,N/A,,Clear,180,2013-01-19 14:15:00
7:35 AM,30.2,6.8,37,30.19,10.0,SSE,6.9,-,N/A,,Clear,160,2013-01-19 14:35:00
7:55 AM,33.8,6.8,32,30.20,10.0,South,6.9,-,N/A,,Clear,170,2013-01-19 14:55:00
8:15 AM,30.2,8.6,40,30.21,10.0,SE,4.6,-,N/A,,Clear,130,2013-01-19 15:15:00
8:35 AM,35.6,10.4,35,30.22,10.0,Calm,Calm,-,N/A,,Clear,0,2013-01-19 15:35:00
8:55 AM,35.6,8.6,33,30.22,10.0,Calm,Calm,-,N/A,,Clear,0,2013-01-19 15:55:00
9:15 AM,35.6,14.0,41,30.23,10.0,Calm,Calm,-,N/A,,Clear,0,2013-01-19 16:15:00
9:35 AM,35.6,10.4,35,30.25,10.0,Calm,Calm,-,N/A,,Clear,0,2013-01-19 16:35:00
9:55 AM,39.2,12.2,33,30.25,10.0,Calm,Calm,-,N/A,,Clear,0,2013-01-19 16:55:00
10:15 AM,41.0,14.0,33,30.25,10.0,Calm,Calm,-,N/A,,Clear,0,2013-01-19 17:15:00
10:35 AM,42.8,12.2,29,30.25,10.0,West,4.6,-,N/A,,Clear,260,2013-01-19 17:35:00
10:55 AM,44.6,12.2,27,30.24,10.0,SW,5.8,-,N/A,,Clear,220,2013-01-19 17:55:00
11:15 AM,46.4,14.0,27,30.23,10.0,SW,6.9,-,N/A,,Clear,230,2013-01-19 18:15:00
11:35 AM,48.2,14.0,25,30.21,10.0,SSE,10.4,-,N/A,,Clear,160,2013-01-19 18:35:00
11:55 AM,51.8,12.2,21,30.21,10.0,SSE,8.1,-,N/A,,Clear,160,2013-01-19 18:55:00
12:35 PM,53.6,12.2,19,30.19,10.0,SSE,8.1,-,N/A,,Clear,160,2013-01-19 19:35:00
12:55 PM,53.6,12.2,19,30.18,10.0,SSE,9.2,-,N/A,,Clear,160,2013-01-19 19:55:00
1:15 PM,53.6,12.2,19,30.18,10.0,SSE,6.9,-,N/A,,Clear,160,2013-01-19 20:15:00
1:35 PM,53.6,12.2,19,30.17,10.0,SSE,5.8,-,N/A,,Clear,150,2013-01-19 20:35:00
1:55 PM,55.4,12.2,18,30.16,10.0,SSE,5.8,-,N/A,,Clear,160,2013-01-19 20:55:00
2:15 PM,55.4,12.2,18,30.16,10.0,SE,5.8,-,N/A,,Clear,140,2013-01-19 21:15:00
2:35 PM,55.4,12.2,18,30.16,10.0,SE,5.8,-,N/A,,Clear,130,2013-01-19 21:35:00
2:55 PM,55.4,12.2,18,30.16,10.0,ESE,6.9,-,N/A,,Clear,110,2013-01-19 21:55:00
3:15 PM,55.4,14.0,20,30.17,10.0,ENE,8.1,-,N/A,,Clear,70,2013-01-19 22:15:00
3:35 PM,57.2,15.8,20,30.17,10.0,NE,8.1,-,N/A,,Clear,50,2013-01-19 22:35:00
4:35 PM,51.8,12.2,21,30.18,10.0,ENE,5.8,-,N/A,,Clear,70,2013-01-19 23:35:00
4:55 PM,48.2,12.2,24,30.17,10.0,East,4.6,-,N/A,,Clear,90,2013-01-19 23:55:00
5:15 PM,46.4,10.4,23,30.18,10.0,NE,3.5,-,N/A,,Clear,50,2013-01-20 00:15:00
5:35 PM,44.6,10.4,25,30.18,10.0,East,3.5,-,N/A,,Clear,80,2013-01-20 00:35:00
5:55 PM,41.0,10.4,29,30.17,10.0,East,4.6,-,N/A,,Clear,90,2013-01-20 00:55:00
6:15 PM,42.8,12.2,29,30.18,10.0,Calm,Calm,-,N/A,,Clear,0,2013-01-20 01:15:00
6:55 PM,42.8,14.0,31,30.19,10.0,North,4.6,-,N/A,,Clear,10,2013-01-20 01:55:00
7:15 PM,37.4,14.0,38,30.20,10.0,NNE,8.1,-,N/A,,Clear,20,2013-01-20 02:15:00
7:35 PM,37.4,14.0,38,30.19,10.0,North,8.1,-,N/A,,Clear,10,2013-01-20 02:35:00
8:15 PM,37.4,15.8,41,30.20,10.0,North,4.6,-,N/A,,Clear,10,2013-01-20 03:15:00
8:55 PM,35.6,15.8,44,30.20,10.0,NE,8.1,-,N/A,,Clear,50,2013-01-20 03:55:00
9:15 PM,35.6,14.0,41,30.19,10.0,NE,8.1,-,N/A,,Clear,40,2013-01-20 04:15:00
9:35 PM,33.8,12.2,41,30.20,10.0,Calm,Calm,-,N/A,,Clear,0,2013-01-20 04:35:00
9:55 PM,28.4,12.2,51,30.20,10.0,West,4.6,-,N/A,,Clear,260,2013-01-20 04:55:00
10:35 PM,30.2,14.0,51,30.20,10.0,North,5.8,-,N/A,,Clear,350,2013-01-20 05:35:00
10:55 PM,33.8,12.2,41,30.19,10.0,NNW,6.9,-,N/A,,Clear,330,2013-01-20 05:55:00
11:15 PM,32.0,12.2,44,30.19,10.0,North,5.8,-,N/A,,Clear,360,2013-01-20 06:15:00
11:35 PM,32.0,12.2,44,30.18,10.0,Calm,Calm,-,N/A,,Clear,0,2013-01-20 06:35:00
11:55 PM,33.8,12.2,41,30.18,10.0,Calm,Calm,-,N/A,,Clear,0,2013-01-20 06:55:00